| time (UTC) | temp C | wind direction | speed KPH | gust KPH | rain 1hr cm | rain 24hr cm | rain mn cm | humidity % | barometer mb |
| 20260906110004 | 20 | 352 | 0.0 | 3.2 | 0.00 | 0.03 | 0.00 | 91 | 1016.2 |
| 20260906104508 | 20 | 352 | 0.0 | 0.0 | 0.00 | 0.03 | 0.00 | 90 | 1016.0 |
| 20260906103016 | 20 | 352 | 0.0 | 3.2 | 0.00 | 0.03 | 0.00 | 90 | 1016.1 |
| 20260906101523 | 20 | 352 | 0.0 | 3.2 | 0.00 | 0.03 | 0.00 | 90 | 1016.0 |
| 20260906100038 | 20 | 360 | 0.0 | 3.2 | 0.00 | 0.03 | 0.00 | 90 | 1016.0 |
| 20260906094507 | 20 | 360 | 0.0 | 3.2 | 0.00 | 0.03 | 0.00 | 89 | 1016.0 |
| 20260906093033 | 20 | 205 | 0.0 | 6.4 | 0.00 | 0.03 | 0.00 | 89 | 1015.9 |
| 20260906091521 | 20 | 188 | 4.8 | 9.7 | 0.00 | 0.03 | 0.00 | 90 | 1015.5 |
| 20260906090026 | 20 | 178 | 0.0 | 3.2 | 0.00 | 0.03 | 0.00 | 90 | 1015.7 |
| 20260906084530 | 20 | 128 | 0.0 | 3.2 | 0.00 | 0.03 | 0.00 | 91 | 1015.5 |
| 20260906083010 | 20 | 24 | 0.0 | 3.2 | 0.00 | 0.03 | 0.00 | 91 | 1015.5 |
| 20260906081541 | 20 | 24 | 0.0 | 3.2 | 0.00 | 0.03 | 0.00 | 90 | 1015.7 |
| 20260906080026 | 20 | 24 | 0.0 | 3.2 | 0.00 | 0.03 | 0.00 | 90 | 1015.9 |
| 20260906074532 | 20 | 24 | 0.0 | 0.0 | 0.00 | 0.03 | 0.00 | 90 | 1015.9 |
| 20260906073048 | 20 | 24 | 0.0 | 3.2 | 0.00 | 0.03 | 0.00 | 90 | 1016.1 |
| 20260906071515 | 20 | 24 | 0.0 | 3.2 | 0.00 | 0.03 | 0.00 | 90 | 1016.2 |
| 20260906070035 | 20 | 24 | 0.0 | 3.2 | 0.00 | 0.03 | 0.00 | 89 | 1016.0 |
| 20260906064529 | 21 | 24 | 0.0 | 3.2 | 0.00 | 0.03 | 0.00 | 89 | 1016.2 |
| 20260906063030 | 21 | 24 | 0.0 | 3.2 | 0.00 | 0.03 | 0.00 | 89 | 1015.9 |
| 20260906061532 | 21 | 342 | 0.0 | 3.2 | 0.00 | 0.03 | 0.00 | 89 | 1016.2 |
| 20260906060020 | 21 | 342 | 0.0 | 3.2 | 0.00 | 0.03 | 0.00 | 89 | 1016.4 |
| 20260906054525 | 21 | 111 | 0.0 | 3.2 | 0.00 | 0.03 | 0.00 | 89 | 1016.5 |
| 20260906053036 | 21 | 18 | 1.6 | 3.2 | 0.00 | 0.03 | 0.00 | 89 | 1016.6 |
| 20260906051531 | 21 | 71 | 0.0 | 3.2 | 0.00 | 0.03 | 0.00 | 88 | 1016.5 |
| 20260906050018 | 21 | 71 | 1.6 | 3.2 | 0.00 | 0.03 | 0.00 | 88 | 1016.8 |
| 20260906044527 | 21 | 29 | 0.0 | 3.2 | 0.00 | 0.03 | 0.00 | 88 | 1016.8 |
| 20260906043004 | 21 | 51 | 0.0 | 3.2 | 0.00 | 0.03 | 0.00 | 89 | 1016.6 |
| 20260906041506 | 21 | 51 | 0.0 | 3.2 | 0.00 | 0.03 | 0.00 | 89 | 1016.4 |
| 20260906040005 | 21 | 51 | 0.0 | 3.2 | 0.00 | 0.03 | 0.00 | 88 | 1016.6 |
| 20260906034505 | 21 | 30 | 0.0 | 3.2 | 0.00 | 0.03 | 0.03 | 88 | 1016.7 |
| 20260906033006 | 21 | 30 | 0.0 | 3.2 | 0.00 | 0.03 | 0.03 | 88 | 1016.8 |
| 20260906031510 | 21 | 30 | 0.0 | 3.2 | 0.00 | 0.03 | 0.03 | 88 | 1016.9 |
| 20260906030007 | 21 | 30 | 0.0 | 3.2 | 0.00 | 0.03 | 0.03 | 88 | 1017.1 |
| 20260906024506 | 22 | 30 | 0.0 | 3.2 | 0.00 | 0.03 | 0.03 | 87 | 1016.8 |
| 20260906023006 | 22 | 30 | 0.0 | 1.6 | 0.00 | 0.03 | 0.03 | 86 | 1017.1 |
| 20260906021507 | 22 | 30 | 0.0 | 3.2 | 0.00 | 0.03 | 0.03 | 86 | 1016.9 |
| 20260906020009 | 22 | 30 | 1.6 | 3.2 | 0.00 | 0.03 | 0.03 | 85 | 1017.0 |
| 20260906014508 | 22 | 43 | 1.6 | 3.2 | 0.00 | 0.03 | 0.03 | 85 | 1016.8 |
| 20260906013009 | 22 | 5 | 0.0 | 3.2 | 0.00 | 0.03 | 0.03 | 84 | 1016.7 |
| 20260906011508 | 22 | 5 | 0.0 | 0.0 | 0.00 | 0.03 | 0.03 | 83 | 1016.4 |
| 20260906010010 | 23 | 5 | 0.0 | 0.0 | 0.00 | 0.03 | 0.03 | 82 | 1016.2 |
| 20260906004510 | 23 | 5 | 0.0 | 3.2 | 0.00 | 0.03 | 0.03 | 81 | 1016.1 |
| 20260906003009 | 23 | 5 | 0.0 | 3.2 | 0.00 | 0.03 | 0.03 | 79 | 1016.2 |
| 20260906001508 | 24 | 5 | 0.0 | 3.2 | 0.00 | 0.03 | 0.03 | 78 | 1016.2 |
| 20260906000013 | 25 | 5 | 0.0 | 3.2 | 0.00 | 0.03 | 0.03 | 76 | 1016.0 |
| 20260905234514 | 26 | 5 | 1.6 | 3.2 | 0.00 | 0.03 | 0.03 | 73 | 1015.9 |
| 20260905233013 | 27 | 5 | 0.0 | 3.2 | 0.00 | 0.03 | 0.03 | 69 | 1016.0 |
| 20260905231515 | 27 | 5 | 0.0 | 1.6 | 0.00 | 0.03 | 0.03 | 67 | 1015.8 |
| 20260905230015 | 28 | 11 | 1.6 | 4.8 | 0.00 | 0.03 | 0.03 | 63 | 1016.0 |
| 20260905224515 | 28 | 320 | 1.6 | 4.8 | 0.00 | 0.03 | 0.03 | 64 | 1016.1 |
| 20260905223018 | 29 | 306 | 1.6 | 6.4 | 0.00 | 0.18 | 0.03 | 62 | 1016.3 |
| 20260905221515 | 29 | 299 | 1.6 | 8.0 | 0.00 | 0.18 | 0.03 | 60 | 1016.4 |
| 20260905220016 | 29 | 242 | 0.0 | 3.2 | 0.00 | 0.18 | 0.03 | 65 | 1016.4 |
| 20260905214516 | 28 | 219 | 1.6 | 6.4 | 0.00 | 0.18 | 0.03 | 62 | 1016.2 |
| 20260905213019 | 28 | 165 | 1.6 | 4.8 | 0.00 | 0.18 | 0.03 | 61 | 1016.2 |
| 20260905211521 | 28 | 207 | 4.8 | 8.0 | 0.00 | 0.18 | 0.03 | 63 | 1016.3 |
| 20260905210018 | 28 | 294 | 1.6 | 12.9 | 0.00 | 0.18 | 0.03 | 63 | 1016.1 |
| 20260905204519 | 28 | 217 | 3.2 | 14.5 | 0.00 | 0.18 | 0.03 | 66 | 1016.2 |
| 20260905203021 | 28 | 279 | 4.8 | 11.3 | 0.00 | 0.18 | 0.03 | 64 | 1016.2 |
| 20260905201522 | 28 | 270 | 3.2 | 12.9 | 0.00 | 0.18 | 0.03 | 64 | 1016.2 |
| 20260905200025 | 27 | 170 | 6.4 | 9.7 | 0.00 | 0.18 | 0.03 | 63 | 1016.4 |
| 20260905194524 | 27 | 267 | 3.2 | 6.4 | 0.00 | 0.18 | 0.03 | 64 | 1016.7 |
| 20260905193024 | 27 | 209 | 3.2 | 8.0 | 0.00 | 0.18 | 0.03 | 68 | 1016.7 |
| 20260905191515 | 27 | 298 | 1.6 | 6.4 | 0.00 | 0.18 | 0.03 | 65 | 1016.9 |
| 20260905190042 | 26 | 299 | 3.2 | 11.3 | 0.00 | 0.18 | 0.03 | 68 | 1017.2 |
| 20260905184504 | 25 | 141 | 3.2 | 9.7 | 0.00 | 0.18 | 0.03 | 72 | 1017.6 |
| 20260905183026 | 25 | 194 | 4.8 | 6.4 | 0.00 | 0.18 | 0.03 | 73 | 1018.0 |
| 20260905181517 | 24 | 71 | 4.8 | 9.7 | 0.00 | 0.18 | 0.03 | 79 | 1018.3 |
| 20260905180028 | 22 | 88 | 0.0 | 3.2 | 0.00 | 0.18 | 0.03 | 83 | 1018.7 |
| 20260905174527 | 22 | 120 | 0.0 | 3.2 | 0.00 | 0.18 | 0.03 | 83 | 1019.3 |
| 20260905173006 | 21 | 286 | 0.0 | 6.4 | 0.00 | 0.18 | 0.03 | 84 | 1019.8 |
| 20260905171534 | 21 | 179 | 3.2 | 8.0 | 0.00 | 0.18 | 0.03 | 84 | 1019.8 |
| 20260905170016 | 21 | 336 | 1.6 | 3.2 | 0.00 | 0.18 | 0.03 | 85 | 1019.7 |
| 20260905164503 | 21 | 140 | 0.0 | 3.2 | 0.03 | 0.18 | 0.03 | 84 | 1019.4 |
| 20260905163028 | 21 | 21 | 0.0 | 3.2 | 0.03 | 0.18 | 0.03 | 82 | 1019.8 |
| 20260905161510 | 21 | 189 | 0.0 | 3.2 | 0.03 | 0.18 | 0.03 | 80 | 1019.7 |
| 20260905160031 | 22 | 342 | 3.2 | 32.2 | 0.03 | 0.18 | 0.03 | 75 | 1019.9 |
| 20260905154530 | 24 | 18 | 9.7 | 24.1 | 0.00 | 0.15 | 0.00 | 71 | 1019.9 |
| 20260905153006 | 26 | 5 | 0.0 | 3.2 | 0.00 | 0.15 | 0.00 | 79 | 1019.3 |
| 20260905151510 | 26 | 338 | 6.4 | 8.0 | 0.00 | 0.15 | 0.00 | 76 | 1019.2 |
| 20260905150029 | 26 | 209 | 3.2 | 8.0 | 0.00 | 0.15 | 0.00 | 74 | 1019.1 |
| 20260905144520 | 26 | 211 | 1.6 | 6.4 | 0.00 | 0.15 | 0.00 | 76 | 1018.7 |
| 20260905143030 | 26 | 252 | 0.0 | 4.8 | 0.00 | 0.15 | 0.00 | 77 | 1018.5 |
| 20260905141505 | 25 | 177 | 3.2 | 4.8 | 0.00 | 0.15 | 0.00 | 78 | 1018.7 |
| 20260905140034 | 25 | 196 | 1.6 | 4.8 | 0.00 | 0.15 | 0.00 | 80 | 1018.8 |
| 20260905134522 | 23 | 208 | 0.0 | 3.2 | 0.00 | 0.15 | 0.00 | 84 | 1019.1 |
| 20260905133030 | 22 | 205 | 0.0 | 4.8 | 0.00 | 0.15 | 0.00 | 86 | 1019.1 |
| 20260905131538 | 22 | 161 | 1.6 | 3.2 | 0.00 | 0.15 | 0.00 | 88 | 1018.9 |
| 20260905130040 | 21 | 247 | 1.6 | 4.8 | 0.00 | 0.15 | 0.00 | 91 | 1019.1 |
| 20260905124516 | 21 | 233 | 0.0 | 3.2 | 0.00 | 0.15 | 0.00 | 92 | 1019.2 |
| 20260905123024 | 20 | 94 | 0.0 | 3.2 | 0.00 | 0.15 | 0.00 | 92 | 1019.1 |
| 20260905121536 | 20 | 18 | 0.0 | 3.2 | 0.00 | 0.15 | 0.00 | 93 | 1019.1 |
| 20260905120033 | 20 | 18 | 0.0 | 3.2 | 0.00 | 0.15 | 0.00 | 92 | 1018.7 |
| 20260905114513 | 20 | 18 | 0.0 | 3.2 | 0.00 | 0.15 | 0.00 | 92 | 1018.7 |
| 20260905113032 | 20 | 18 | 0.0 | 0.0 | 0.00 | 0.15 | 0.00 | 91 | 1018.4 |
| 20260905111554 | 20 | 18 | 0.0 | 0.0 | 0.00 | 0.15 | 0.00 | 91 | 1018.4 |